Location: Zagreb
(45.8000°N, 16.0000°E)
Time: 12:19:42
(UTC+01:00)

N. Korean satellite - Visible Passes

Search period start: 14 December 2019 00:00
Search period end: 24 December 2019 00:00
Orbit: 455 x 507 km, 97.2° (Epoch: 13 December)

Date Brightness Start Highest point End Pass type
(mag) Time Alt. Az. Time Alt. Az. Time Alt. Az.
14 Dec 6.4 05:53:25 10° NNE 05:56:58 87° ESE 06:00:25 10° SSW visible
14 Dec 9.9 18:05:55 10° WSW 18:07:54 14° W 18:09:52 10° WNW visible
15 Dec 7.9 05:28:09 10° NNE 05:31:28 39° E 05:34:43 10° S visible
15 Dec 9.0 17:39:08 10° SSW 17:42:17 26° W 17:45:25 10° NW visible
16 Dec 9.3 05:03:16 10° NE 05:05:53 20° E 05:08:28 10° SE visible
16 Dec 7.4 06:36:19 10° N 06:39:18 27° WNW 06:42:15 10° SW visible
16 Dec 7.5 17:13:08 10° S 17:16:45 52° W 17:20:20 10° NNW visible
17 Dec 6.5 06:10:32 10° N 06:13:59 54° WNW 06:17:20 10° SSW visible
17 Dec 6.5 16:47:38 10° SSE 16:51:18 74° ENE 16:54:56 10° N visible
18 Dec 6.8 05:45:04 10° NNE 05:48:33 68° ESE 05:51:57 10° S visible
18 Dec 9.8 17:57:01 10° SW 17:59:27 17° W 18:01:53 10° NW visible
19 Dec 8.4 05:19:53 10° NNE 05:23:01 31° E 05:26:06 10° SSE visible
19 Dec 8.0 06:53:50 10° NNW 06:56:12 17° WNW 06:58:33 10° WSW visible
19 Dec 8.6 17:30:32 10° SSW 17:33:52 32° W 17:37:10 10° NNW visible
20 Dec 9.6 04:55:13 10° NE 04:57:24 16° E 04:59:34 10° SE visible
20 Dec 7.1 06:27:46 10° N 06:30:55 33° WNW 06:34:01 10° SW visible
20 Dec 7.0 17:04:42 10° S 17:08:21 67° W 17:11:57 10° NNW visible
21 Dec 6.3 06:02:06 10° N 06:05:34 71° WNW 06:08:57 10° SSW visible
21 Dec 10.2 18:15:51 10° WSW 18:16:39 11° W 18:17:26 10° WNW visible
22 Dec 7.3 05:36:42 10° NNE 05:40:05 52° E 05:43:26 10° S visible
22 Dec 9.5 17:48:13 10° SW 17:50:59 20° W 17:53:45 10° NW visible
23 Dec 8.8 05:11:38 10° NE 05:14:32 25° E 05:17:24 10° SSE visible
23 Dec 7.7 06:45:09 10° NNW 06:47:50 21° WNW 06:50:28 10° WSW visible
23 Dec 8.1 17:21:59 10° S 17:25:25 40° W 17:28:50 10° NNW visible
